Location: New Greens
(51.7702°N, 0.3379°W)
Time: 04:16:40
(UTC+00:00)

Envisat - Pass Details

Date: 31 January 2019
Orbit: 764 x 766 km, 98.1° (Epoch: 23 October)

Event Time Altitude Azimuth Distance (km) Brightness Sun altitude
Rises 06:34:18 0° 24° (NNE) 3,246 6.4 -10.7°
Reaches altitude 10° 06:37:08 10° 40° (NE) 2,314 5.8 -10.2°
Maximum altitude 06:41:03 22° 90° (E) 1,633 5.8 -9.7°
Drops below altitude 10° 06:44:57 10° 140° (SE) 2,299 6.4 -9.1°
Sets 06:47:45 0° 156° (SSE) 3,220 6.9 -8.7°
